COSMOS 2251 DEB, 36558

Orbit data source: Space-Track

COSMOS 2251 DEB, 36558 is space debris in LEO originally from a launch on Wed, 16 Jun 1993 UTC launched from the Plesetsk Missile And Space Complex (PKMTR). The debris from Iridium 33, an American commercial communications satellite, has been tracked extensively since its accidental collision with the defunct Russian satellite Cosmos 2251 in 2009. This event, occurring at high speed in low Earth orbit (LEO), generated thousands of pieces of space debris, significantly increasing the risk of further collisions. The Iridium 33 debris cloud has impacted space traffic management and orbital debris mitigation strategies, making it a subject of ongoing study in space situational awareness.

Loading next visibility...
Identifier
36558, 1993-036BDU
Orbit
LEO
Country
Flag of CISCIS
Related business
Manufacturer
Unknown
Mission
Spacecraft
Bus & Motor
Unknown
Mass
Unknown
Launch date (UTC)
1993-06-16 (33 years ago)
Launch vehicle
Unknown
Launch site
Plesetsk Missile And Space Complex (PKMTR)
Object type
Payload
Rocket body
Debris
Shape & HBR
Unknown shape, 0.1 m
Radar Cross Section
Small (<0.1 m²)

Expand to show TLE details & history
Last TLE update: 2 days ago

TLE from 2 days ago
0 COSMOS 2251 DEB
1 36558U 93036BDU 26166.66930138  .00002070  00000-0  47020-3 0  9990
2 36558  74.0416 164.0184 0013258 212.9396 147.0943 14.56604310879604
Epoch: 2026-06-15T16:03Z
TLE epoch observation values (Epoch: 2026-06-15T16:03:47.639Z)
Latitude
-0.00002°
Longitude
19.11753°
Altitude
714.684 km
Speed
7.494 km/s
True Right ascension
10h 56m 04s
True Declination
0° 00' 00"
Sunlit
Object was in daylight at epoch
Visualization orbit readout
Latitude
Unknown
Longitude
Unknown
Altitude
Unknown
Speed
Unknown
Apparent Right ascension
Unknown
Apparent Declination
Unknown
Sunlit
N/A
Visualization observer readout
Local Sidereal Time
05:48:07
Azimuth
Unknown
Elevation
Unknown
Doppler factor
Unknown
Orbital elements
Apogee altitude
711.147 km
Perigee altitude
692.374 km
Semi-major axis
7,079.897 km
Eccentricity
0.00133
Inclination
74.0416°
RAAN
164.0184°
Arg. of periapsis
212.9396°
True anomaly
147.17672°
Mean anomaly
147.0943°
Eccentric anomaly
147.13552°
Mean motion
3.64337 °/min
Orbital period
98.81 mins
BSTAR
0.0004702

Documentation

Showing up to 5 results
|